User: anonymous   Login
Location: Lake Superior Provincial Park
(47.3335°N, 84.6162°W)
Time: 20:48:07
(UTC-04:00)
Language:

Cosmos 2333 Rocket - Orbit

View from above orbital plane
View from above orbital plane
View from above satellite
View from above satellite

Ground track
Ground track

The orbit data is extracted from the following two-line orbital elements,

1 24298U 96051B   17295.62335028 -.00000104 +00000-0 -30150-4 0  9999
2 24298 070.8465 153.5514 0015653 342.5742 017.4839 14.12486840089555
Epoch (UTC): 22 October 2017 14:57:37
Eccentricity: 0.0015653
inclination: 70.8465°
perigee height: 839 km
apogee height: 862 km
right ascension of ascending node: 153.5514°
argument of perigee: 342.5742°
revolutions per day: 14.12486840
mean anomaly at epoch: 17.4839°
orbit number at epoch: 8955

The dashed part of the orbit path shows where the satellite is in the earth's shadow,  

DLR